• In Uzbekistan
  • List of Countries
  • For 7 days
  • Water Temperature
  • Satellite Maps
  • Weather Map
  • Weather Widgets
  • user-avatar
    Login

    Hourly Weather Innsbruck

    Today, 28 May, Sunday

    Time Temperature Precipitation Wind Pressure Humidity
    00:00 +4°C° 0 mm 1 mps 598 mmHg 92%
    01:00 +4°C° 0 mm 1 mps 598 mmHg 91%
    02:00 +3°C° 0 mm 1 mps 598 mmHg 91%
    03:00 +3°C° 0 mm 1 mps 598 mmHg 90%
    04:00 +3°C° 0 mm 1 mps 598 mmHg 90%
    05:00 +6°C° 0 mm 1 mps 599 mmHg 84%
    06:00 +8°C° 0 mm 1 mps 601 mmHg 77%
    07:00 +11°C° 0 mm 1 mps 602 mmHg 71%
    08:00 +13°C° 0 mm 1 mps 603 mmHg 60%
    09:00 +16°C° 0 mm 1 mps 604 mmHg 49%
    10:00 +19°C° 0 mm 1 mps 605 mmHg 39%
    11:00 +19°C° 0 mm 1 mps 605 mmHg 37%
    12:00 +20°C° 0 mm 1 mps 605 mmHg 36%
    13:00 +20°C° 0 mm 1 mps 605 mmHg 34%
    14:00 +20°C° 0 mm 1 mps 605 mmHg 37%
    15:00 +20°C° 0 mm 1 mps 604 mmHg 40%
    16:00 +18°C° 0 mm 2 mps 604 mmHg 43%
    17:00 +16°C° 0.1 mm 1 mps 603 mmHg 55%
    18:00 +14°C° 0.1 mm 1 mps 602 mmHg 68%
    19:00 +13°C° 0.1 mm 1 mps 601 mmHg 81%
    20:00 +10°C° 0 mm 1 mps 600 mmHg 85%
    21:00 +6°C° 0 mm 0 mps 599 mmHg 90%
    22:00 +4°C° 0 mm 0 mps 598 mmHg 95%
    23:00 +5°C° 0 mm 1 mps 598 mmHg 94%

    Tomorrow, 29 May, Monday

    Time Temperature Precipitation Wind Pressure Humidity
    00:00 +6°C° 0 mm 1 mps 598 mmHg 93%
    01:00 +6°C° 0 mm 1 mps 599 mmHg 93%
    02:00 +6°C° 0 mm 1 mps 598 mmHg 93%
    03:00 +6°C° 0 mm 1 mps 598 mmHg 93%
    04:00 +5°C° 0 mm 1 mps 598 mmHg 93%
    05:00 +8°C° 0 mm 1 mps 599 mmHg 87%
    06:00 +10°C° 0 mm 1 mps 600 mmHg 81%
    07:00 +12°C° 0 mm 1 mps 601 mmHg 75%
    08:00 +14°C° 0 mm 1 mps 602 mmHg 65%
    09:00 +18°C° 0 mm 1 mps 602 mmHg 54%
    10:00 +20°C° 0 mm 1 mps 603 mmHg 44%
    11:00 +20°C° 0 mm 1 mps 603 mmHg 42%
    12:00 +21°C° 0 mm 1 mps 603 mmHg 41%
    13:00 +22°C° 0 mm 1 mps 603 mmHg 39%
    14:00 +21°C° 0.2 mm 1 mps 603 mmHg 44%
    15:00 +20°C° 0.2 mm 1 mps 602 mmHg 49%
    16:00 +19°C° 0.2 mm 1 mps 601 mmHg 54%
    17:00 +16°C° 0.4 mm 1 mps 601 mmHg 65%
    18:00 +15°C° 0.4 mm 1 mps 600 mmHg 75%
    19:00 +14°C° 0.4 mm 1 mps 600 mmHg 86%
    20:00 +11°C° 0.2 mm 1 mps 599 mmHg 89%
    21:00 +9°C° 0.2 mm 1 mps 598 mmHg 92%
    22:00 +7°C° 0.2 mm 1 mps 597 mmHg 95%
    23:00 +7°C° 0.6 mm 1 mps 597 mmHg 96%

    Day after tomorrow, 30 May, Tuesday

    Time Temperature Precipitation Wind Pressure Humidity
    00:00 +7°C° 0.6 mm 1 mps 597 mmHg 96%
    01:00 +7°C° 0.6 mm 1 mps 597 mmHg 96%
    02:00 +7°C° 0.3 mm 1 mps 597 mmHg 96%
    03:00 +7°C° 0.3 mm 1 mps 597 mmHg 96%
    04:00 +6°C° 0.3 mm 1 mps 597 mmHg 96%
    05:00 +8°C° 0.2 mm 1 mps 598 mmHg 94%
    06:00 +10°C° 0.2 mm 1 mps 598 mmHg 91%
    07:00 +11°C° 0.2 mm 1 mps 599 mmHg 88%
    08:00 +13°C° 0.2 mm 1 mps 600 mmHg 82%
    09:00 +14°C° 0.2 mm 1 mps 601 mmHg 75%
    10:00 +16°C° 0.2 mm 1 mps 601 mmHg 69%
    11:00 +16°C° 0.9 mm 1 mps 601 mmHg 71%
    12:00 +16°C° 0.9 mm 1 mps 601 mmHg 72%
    13:00 +16°C° 0.9 mm 1 mps 601 mmHg 74%
    14:00 +16°C° 1.6 mm 1 mps 601 mmHg 77%
    15:00 +15°C° 1.6 mm 1 mps 601 mmHg 79%
    16:00 +15°C° 1.6 mm 1 mps 600 mmHg 82%
    17:00 +14°C° 2.4 mm 1 mps 600 mmHg 86%
    18:00 +13°C° 2.4 mm 1 mps 600 mmHg 90%
    19:00 +12°C° 2.4 mm 1 mps 599 mmHg 95%
    20:00 +11°C° 2.2 mm 1 mps 599 mmHg 96%
    21:00 +10°C° 2.2 mm 1 mps 599 mmHg 96%
    22:00 +9°C° 2.2 mm 1 mps 599 mmHg 97%
    23:00 +9°C° 0.6 mm 1 mps 599 mmHg 97%

    31 May, Wednesday

    Time Temperature Precipitation Wind Pressure Humidity
    00:00 +9°C° 0.6 mm 1 mps 599 mmHg 97%
    01:00 +8°C° 0.6 mm 1 mps 599 mmHg 97%
    02:00 +8°C° 0.1 mm 1 mps 598 mmHg 96%
    03:00 +7°C° 0.1 mm 1 mps 598 mmHg 96%
    04:00 +6°C° 0.1 mm 1 mps 598 mmHg 96%
    05:00 +8°C° 0 mm 1 mps 598 mmHg 93%
    06:00 +9°C° 0 mm 1 mps 599 mmHg 91%
    07:00 +11°C° 0 mm 1 mps 600 mmHg 89%
    08:00 +12°C° 0 mm 1 mps 601 mmHg 79%
    09:00 +14°C° 0 mm 1 mps 601 mmHg 70%
    10:00 +16°C° 0 mm 1 mps 602 mmHg 60%
    11:00 +16°C° 0.4 mm 1 mps 602 mmHg 63%
    12:00 +16°C° 0.4 mm 1 mps 602 mmHg 66%
    13:00 +16°C° 0.4 mm 1 mps 602 mmHg 69%
    14:00 +15°C° 1.1 mm 1 mps 601 mmHg 73%
    15:00 +15°C° 1.1 mm 1 mps 601 mmHg 78%
    16:00 +14°C° 1.1 mm 1 mps 600 mmHg 82%
    17:00 +13°C° 1.6 mm 1 mps 600 mmHg 86%
    18:00 +12°C° 1.6 mm 1 mps 600 mmHg 90%
    19:00 +11°C° 1.6 mm 1 mps 599 mmHg 95%
    20:00 +10°C° 1.2 mm 1 mps 599 mmHg 96%
    21:00 +9°C° 1.2 mm 1 mps 599 mmHg 97%
    22:00 +8°C° 1.2 mm 1 mps 599 mmHg 98%
    23:00 +6°C° 0.2 mm 0 mps 598 mmHg 98%

    1 June, Thursday

    Time Temperature Precipitation Wind Pressure Humidity
    00:00 +6°C° 0.2 mm 0 mps 598 mmHg 98%
    01:00 +5°C° 0.2 mm 0 mps 598 mmHg 98%
    02:00 +5°C° 0 mm 0 mps 597 mmHg 98%
    03:00 +5°C° 0 mm 0 mps 597 mmHg 98%
    04:00 +5°C° 0 mm 0 mps 597 mmHg 98%
    05:00 +6°C° 0 mm 0 mps 598 mmHg 96%
    06:00 +8°C° 0 mm 0 mps 599 mmHg 95%
    07:00 +10°C° 0 mm 1 mps 600 mmHg 93%
    08:00 +11°C° 0.1 mm 1 mps 600 mmHg 89%
    09:00 +11°C° 0.1 mm 1 mps 600 mmHg 85%
    10:00 +12°C° 0.1 mm 1 mps 601 mmHg 81%
    11:00 +13°C° 0.4 mm 1 mps 601 mmHg 80%
    12:00 +13°C° 0.4 mm 1 mps 601 mmHg 78%
    13:00 +14°C° 0.4 mm 1 mps 601 mmHg 77%
    14:00 +14°C° 0.9 mm 1 mps 600 mmHg 79%
    15:00 +13°C° 0.9 mm 2 mps 600 mmHg 81%
    16:00 +13°C° 0.9 mm 2 mps 600 mmHg 83%
    17:00 +12°C° 1.1 mm 1 mps 600 mmHg 86%
    18:00 +11°C° 1.1 mm 1 mps 599 mmHg 90%
    19:00 +11°C° 1.1 mm 1 mps 599 mmHg 93%
    20:00 +10°C° 0.7 mm 1 mps 599 mmHg 95%
    21:00 +9°C° 0.7 mm 1 mps 599 mmHg 96%
    22:00 +7°C° 0.7 mm 0 mps 598 mmHg 98%
    23:00 +6°C° 0.2 mm 0 mps 598 mmHg 98%

    2 June, Friday

    Time Temperature Precipitation Wind Pressure Humidity
    00:00 +6°C° 0.2 mm 0 mps 598 mmHg 98%
    01:00 +6°C° 0.2 mm 0 mps 598 mmHg 98%
    02:00 +5°C° 0.1 mm 0 mps 597 mmHg 98%
    03:00 +5°C° 0.1 mm 0 mps 597 mmHg 98%
    04:00 +4°C° 0.1 mm 0 mps 597 mmHg 98%
    05:00 +6°C° 0.2 mm 0 mps 597 mmHg 96%
    06:00 +7°C° 0.2 mm 0 mps 598 mmHg 94%
    07:00 +9°C° 0.2 mm 0 mps 599 mmHg 92%
    08:00 +10°C° 0.5 mm 0 mps 600 mmHg 86%
    09:00 +12°C° 0.5 mm 1 mps 600 mmHg 81%
    10:00 +13°C° 0.5 mm 1 mps 600 mmHg 76%
    11:00 +13°C° 1.1 mm 1 mps 600 mmHg 76%
    12:00 +13°C° 1.1 mm 1 mps 600 mmHg 76%
    13:00 +13°C° 1.1 mm 1 mps 600 mmHg 77%
    14:00 +13°C° 1.2 mm 1 mps 600 mmHg 79%
    15:00 +13°C° 1.2 mm 1 mps 600 mmHg 82%
    16:00 +13°C° 1.2 mm 1 mps 600 mmHg 84%
    17:00 +12°C° 0.4 mm 1 mps 599 mmHg 86%
    18:00 +12°C° 0.4 mm 1 mps 599 mmHg 89%
    19:00 +11°C° 0.4 mm 1 mps 599 mmHg 91%
    20:00 +9°C° 0.2 mm 1 mps 598 mmHg 93%
    21:00 +6°C° 0.2 mm 0 mps 597 mmHg 95%
    22:00 +4°C° 0.2 mm 0 mps 597 mmHg 97%
    23:00 +4°C° 0 mm 0 mps 597 mmHg 97%
    Show more